Retour au catalogue

STARLINK-30767

ActifCommunicationsVLEO
NORAD 58126·PAYLOAD·🇺🇸 United States

Lancé Oct 22, 2023 depuis Cape Canaveral Space Force Station

Loading…

Prochains Passages (prochaines 24 heures)

TLE

FraisSource: CelesTrak SupGP

Époque: Sep 14, 2026, 21:04 UTC

1 58126C 23162J   26257.87826389 -.00007711  00000+0 -27938-3 0  2575
2 58126  43.0005 140.8468 0001393 267.5435 275.5048 15.27572478    15

Suivez STARLINK-30767 en temps réel avec AllMySat

Download on the App Store